Regional Weather Roundup
Issued by NWS Sterling, VA

Home | Current Version | Previous Version | Graphics & Text | Print | Product List | Glossary On
Versions: 1 2 3 4 5 6 7 8 9 10 11 12 13 14 15 16 17 18 19 20 21 22 23 24 25 26 27
000
ASUS41 KLWX 022210
RWRLWX

REGIONAL WEATHER ROUNDUP
NATIONAL WEATHER SERVICE BALTIMORE MD/WASHINGTON DC
500 PM EST FRI DEC 02 2016

Note: "FAIR" indicates few or no clouds below 12,000 feet
with no significant weather and/or obstructions to visibility.
 TC=TEMPERATURE CELSIUS

 * =Non NWS site. Station does not report precipitation (e.g. rain,
    snow, etc.), thunder, or fog.

DCZ001-MDZ009-015-VAZ040>042-051-053>054-022300-
WASHINGTON METRO

CITY           SKY/WX    TMP DP  RH WIND       PRES   REMARKS
WASHINGTON NAT PTCLDY    48  29  47 NW20G25   30.07R
DULLES         MOCLDY    43  28  55 NW18      30.07R
ANDREWS AFB    CLEAR     46  28  50 NW14G24   30.04R
FT BELVOIR     PTCLDY    47  28  48 NW13      30.06R
QUANTICO       PTCLDY    49  29  46 N12       30.07R
COLLEGE PARK*  PTCLDY    45  28  53 NW9G18    30.06R
LEESBURG*      CLOUDY    45  32  61 W13       30.09R
MANASSAS*      CLEAR     45  30  57 N12G18    30.07R
GAITHERSBURG*  MOCLDY    41  25  52 NW16G22   30.10R

$$

MDZ006>007-011-014-022300-
BALTIMORE METRO

CITY           SKY/WX    TMP DP  RH WIND       PRES   REMARKS
BWI AIRPORT    PTCLDY    44  29  55 NW16G23   30.05R
MD SCIENCE CTR   N/A     46  26  45 MISG      30.05R
MARTIN STATE   MOCLDY    46  30  53 W13G24    30.06R
ANNAPOLIS      CLEAR     49  31  49 NW12G20   30.05R
FORT MEADE*    CLEAR     43  30  61 NW10G18   30.08R

$$

MDZ012-015-019>023-022300-
MARYLAND EASTERN SHORE

CITY           SKY/WX    TMP DP  RH WIND       PRES   REMARKS
OCEAN CITY     CLEAR     47  29  49 W7        30.02R
SALISBURY      CLEAR     48  30  49 W7        30.02R
BAY BRIDGE AP* CLEAR     46  30  53 NW17      30.05R
CAMBRIDGE*     CLEAR     46  32  57 NW7       30.03R
EASTON*        CLEAR     48  28  46 NW13G18   30.07R

$$

MDZ017>025-022300-
SOUTHERN MARYLAND

CITY           SKY/WX    TMP DP  RH WIND       PRES   REMARKS
PATUXENT RIVER PTCLDY    49  29  46 W9        30.03R
ST INIGOES     CLEAR     49  33  54 W5        30.02S
LEONARDTOWN*   CLEAR     48  30  49 W3        30.04S

$$

MDZ003>005-022300-
NORTH CENTRAL MARYLAND

CITY           SKY/WX    TMP DP  RH WIND       PRES   REMARKS
FREDERICK*     CLOUDY    43  30  61 W8G17     30.10S
HAGERSTOWN APT CLOUDY    42  27  55 W10       30.05S
WESTMINSTER*   CLOUDY    39  27  60 W15G22    30.04S

$$

MDZ501>502-022300-
WESTERN MARYLAND

CITY           SKY/WX    TMP DP  RH WIND       PRES   REMARKS
OAKLAND*         N/A     28  28 100 W16G23    30.01F WCI  17
CUMBERLAND*    NOT AVBL

$$

VAZ025>031-022300-
SHENANDOAH VALLEY

CITY           SKY/WX    TMP DP  RH WIND       PRES   REMARKS
WINCHESTER*    CLOUDY    39  28  65 W14G20    30.08S
FRONT ROYAL*   CLOUDY    43  30  61 NW12      30.07R
LURAY*         MOCLDY    43  32  65 NW7       30.06S
NEW MARKET*    FAIR      42  26  53 NW5       30.07R
STAUNTON*      CLOUDY    42  28  57 W6        30.08R
WAYNESBORO*    FAIR      40  27  58 SW9       30.06S

$$

WVZ021-048>050-054>055-022300-
EASTERN WEST VIRGINIA PANHANDLE

CITY           SKY/WX    TMP DP  RH WIND       PRES   REMARKS
MARTINSBURG    CLOUDY    41  27  57 W10       30.08R
PETERSBURG*    LGT RAIN  39  30  71 W15       30.12S

$$

VAZ036>039-050-022300-
CENTRAL FOOTHILLS

CITY           SKY/WX    TMP DP  RH WIND       PRES   REMARKS
CHARLOTTESVILL CLEAR     49  29  46 VRB3      30.04S
CULPEPER*      CLEAR     49  29  47 CALM      30.06S
ORANGE*          N/A     48  32  53 CALM      30.06S
GORDONSVILLE*  MOCLDY    49  31  48 CALM      30.04S
WARRENTON*     FAIR      46  26  45 N9        30.05R

$$

VAZ055>057-022300-
NORTH AND CENTRAL PIEDMONT

CITY           SKY/WX    TMP DP  RH WIND       PRES   REMARKS
FREDERICKSBRG* CLEAR     51  32  48 W6        30.04S
STAFFORD*      CLEAR     47  31  52 N9G16     30.09R

$$

NCZ024-NYZ072-PAZ021-071-VAZ022-071-022300-
OTHER REGIONAL OBSERVATIONS

CITY           SKY/WX    TMP DP  RH WIND       PRES   REMARKS
NEW YORK CITY  PTCLDY    49  26  41 W9G24     29.90R
PHILADELPHIA   PTCLDY    47  25  42 W23G29    29.98R
PITTSBURGH     CLOUDY    39  30  70 SW9       30.08R
ROANOKE        PTCLDY    46  28  49 NW22G29   30.12S
RICHMOND       PTCLDY    51  30  44 W7        30.05R
RALEIGH        PTCLDY    53  29  39 W5        30.10R

$$

ANZ530>537-022300-
MARINE OBSERVATIONS

STATION/POSITION TIME  TEMP    WIND        PRES
                       AIR SEA DIR/SP/G
                 (UTC) (F)     (DEG/KT/KT) (MB)
THOMAS PT LIGHT  2200   47 50  310/ 18/ 20   N/A
BALT KEY BRIDGE  2118   46     300/ 18/ 20 1017.1
COVE POINT       2118   51     310/  6/  8 1017.1
LEWISETTA        2118   53 53  300/ 10/ 13 1016.6
SOLOMONS ISLAND  2106   52 53  270/  9/ 15   N/A
PINEY POINT      2118          330/ 11/ 12   N/A

$$





USA.gov is the U.S. government's official web portal to all federal, state and local government web resources and services.